Location: Koussan�
(15.2012°N, 12.5548°W)
Time: 12:26:02
(UTC+00:00)

S3M - Pass Details

Date: 20 October 2020
Orbit: 950 x 1003 km, 83.0° (Epoch: 26 November)

Event Time Altitude Azimuth Distance (km) Brightness Sun altitude
Rises 20:12:48 0° 188° (S) 3,626 7.1 -26.2°
Reaches altitude 10° 20:15:18 10° 190° (S) 2,676 6.4 -26.8°
Maximum altitude 20:21:23 72° 274° (W) 994 4.1 -28.3°
Drops below altitude 10° 20:27:27 10° 358° (N) 2,669 6.3 -29.7°
Sets 20:29:57 0° 1° (N) 3,616 6.9 -30.3°
